RH
74 73 73 72 72 71 69 68 68 68 67 65 64 63 62 61 60 60 59 59 58 57 56 55 54 52 51 48 45 42 38 35 33 31 29 28 28 27 26 25 24 23 23 22 22 21 21 24 26 28 29 31 31 31 30 29 29 29 30 31 31 32 33 33 33 33 33 33 32 32 31 31 31 31 31 31 31 31 32 32 32 31 31 31 31 31
73 72 71 70 69 68 66 65 65 65 64 62 61 61 60 60 59 59 58 58 58 57 56 55 53 52 49 46 42 38 35 33 31 29 28 27 27 26 25 24 23 23 22 22 21 21 21 24 26 29 30 31 31 30 29 29 29 30 31 31 32 33 33 33 33 33 33 32 32 32 32 32 32 32 32 32 32 33 33 33 33 33 33 33 33 34
71 70 69 68 67 65 64 63 63 63 62 61 60 60 60 59 59 58 58 58 57 56 55 54 52 49 46 42 38 35 32 30 29 28 27 27 26 26 25 24 23 23 22 21 21 21 23 25 27 28 30 30 30 29 29 29 30 31 32 32 33 34 34 34 34 34 33 33 33 33 33 33 33 34 34 34 35 35 34 34 34 34 34 34 35 35
70 69 67 66 64 63 63 63 62 62 61 61 60 60 60 60 59 58 58 57 57 55 54 52 49 45 41 37 33 31 29 28 27 27 26 26 25 25 24 24 24 23 23 22 21 22 24 26 27 29 30 28 28 28 29 30 31 32 32 33 33 34 34 35 35 34 35 35 35 35 35 35 35 35 35 36 37 37 37 36 36 36 36 36 36 36
68 67 66 65 64 63 63 62 62 62 62 61 61 61 60 60 59 58 58 57 55 53 50 47 43 39 34 31 29 27 26 26 26 25 25 25 24 24 24 24 24 24 24 23 23 23 25 26 27 28 28 27 28 29 30 31 31 32 32 32 32 33 34 35 36 36 37 37 37 37 36 37 37 37 38 39 39 39 39 38 38 38 38 38 37 37
66 65 65 65 64 64 63 63 62 62 62 61 61 60 60 60 59 58 57 55 53 50 46 41 37 33 29 27 25 24 24 25 25 25 25 24 24 24 25 25 26 26 25 24 24 25 26 26 27 26 26 27 28 29 30 31 30 30 30 31 31 33 34 35 36 37 37 37 37 37 37 38 38 39 39 40 40 40 39 39 39 39 39 38 38 37
65 64 64 65 65 64 63 63 62 62 63 62 61 60 59 58 57 56 55 53 50 46 41 36 32 29 27 25 23 23 23 25 25 25 25 25 25 26 26 27 27 27 26 25 25 25 25 25 25 25 26 27 29 29 30 29 29 30 30 31 32 33 34 34 35 37 37 38 38 38 39 40 40 40 40 40 39 39 39 38 38 38 38 38 38 37
65 64 64 64 64 64 63 62 62 62 63 63 62 60 59 57 56 54 53 51 47 42 37 33 30 28 26 24 23 23 24 26 27 27 27 27 28 29 30 29 29 27 26 25 24 24 24 24 24 25 27 28 30 31 31 31 31 32 33 33 34 35 35 36 37 38 39 40 41 42 42 42 42 42 41 40 39 38 38 38 37 37 37 37 37 36
65 65 64 64 63 63 63 62 62 62 63 62 62 60 58 57 55 53 50 47 42 38 33 30 29 28 27 25 24 24 26 28 29 30 30 30 31 32 32 31 30 29 27 25 25 24 24 25 26 28 30 32 33 34 34 35 35 36 36 37 38 38 39 39 40 41 42 44 45 45 45 45 44 43 41 40 38 38 37 37 37 37 38 38 37 38
65 64 63 63 63 63 64 63 62 61 61 61 60 59 58 56 54 51 46 41 37 32 29 28 28 28 27 25 25 26 29 31 33 33 34 34 35 35 34 33 31 30 28 26 26 26 27 28 30 33 35 36 38 38 38 38 39 39 40 40 41 41 42 42 42 44 46 47 47 47 47 45 43 42 40 39 38 38 38 38 39 40 41 40 39 39
64 64 63 63 63 63 64 63 61 60 60 59 58 57 56 54 51 46 41 36 32 28 26 27 28 28 27 25 27 29 33 34 35 36 36 37 37 36 35 33 32 30 29 29 29 30 31 33 36 37 39 40 41 41 41 41 41 42 42 42 42 43 44 45 46 47 49 49 48 47 46 44 42 41 39 39 40 41 42 43 43 42 41 39 38 39
65 64 64 64 63 63 62 61 60 59 58 58 58 57 54 51 46 41 36 32 29 26 25 26 27 27 27 27 29 32 36 37 37 37 37 38 38 36 34 33 32 31 31 32 34 36 37 39 40 41 42 42 42 42 42 42 42 42 43 43 43 45 46 47 48 49 50 49 48 46 45 43 41 41 42 44 46 47 47 46 45 43 42 41 41 41
65 65 64 63 63 62 61 60 59 58 58 58 57 55 51 45 40 35 31 29 28 27 26 27 28 28 29 31 33 36 39 39 39 38 38 39 38 36 34 33 33 33 35 36 38 40 42 42 42 43 43 42 42 42 41 41 41 42 42 43 45 46 47 48 48 49 49 48 46 45 43 42 43 45 46 46 46 47 46 46 46 46 46 45 45 45
65 64 63 62 62 61 60 59 59 58 58 57 54 50 44 39 34 31 29 28 28 27 28 29 30 31 32 35 38 41 42 42 41 40 41 41 39 37 35 34 35 37 39 41 42 44 44 44 43 42 41 40 39 39 39 39 40 41 42 43 46 47 47 47 48 49 48 46 44 43 41 41 42 42 41 42 43 44 46 47 47 48 48 47 47 46
64 63 62 61 61 60 59 59 58 57 56 53 48 43 37 32 30 28 28 28 28 30 31 32 33 34 35 37 40 43 44 45 44 43 43 42 40 38 37 37 38 40 43 44 45 45 44 42 40 39 37 37 37 37 38 39 41 42 43 44 45 46 46 47 48 48 47 45 43 42 41 41 41 41 42 44 46 48 49 49 49 49 49 49 48 48
63 63 62 61 60 59 58 57 56 55 52 46 41 35 30 29 28 29 29 31 32 33 34 34 35 36 37 39 42 44 45 45 46 47 46 44 42 40 39 40 41 43 46 46 46 44 42 40 38 37 36 37 38 39 40 42 43 44 44 45 45 46 46 47 47 46 45 43 43 43 43 43 44 45 47 49 50 51 51 52 52 51 51 50 49 49
63 62 61 60 59 58 56 55 53 50 44 38 33 29 28 28 29 31 32 34 35 36 36 37 39 40 40 41 44 46 47 48 48 49 49 46 44 42 42 43 44 46 47 47 45 43 40 39 38 38 39 40 41 42 43 44 45 46 46 47 47 47 48 48 47 46 44 44 44 44 44 45 47 49 51 53 54 55 56 55 54 53 52 51 50 50
61 60 59 58 57 56 55 52 47 41 35 30 28 28 29 30 31 33 35 36 38 39 40 41 42 43 44 44 46 49 51 51 51 51 51 48 46 44 44 45 46 47 48 46 45 42 41 40 41 42 43 43 44 45 46 46 47 48 48 49 49 49 49 48 46 45 45 45 45 45 46 48 51 53 56 58 60 61 60 59 57 56 55 54 54 54
60 59 57 56 55 53 49 43 37 32 28 28 28 30 31 33 34 36 38 39 41 43 44 45 45 46 46 46 48 51 53 53 53 53 53 50 48 46 47 48 48 48 48 47 45 44 43 43 44 45 46 46 46 46 47 47 48 48 49 49 49 49 49 47 46 46 46 46 46 46 48 52 56 59 62 64 65 64 63 62 60 59 58 58 59 60
58 56 55 53 50 45 39 33 29 27 27 29 31 33 35 36 38 39 41 43 44 46 47 48 48 49 49 49 50 52 55 55 55 55 54 52 50 49 50 51 51 51 50 48 46 46 45 47 47 47 47 48 48 48 48 48 48 48 48 48 48 48 48 47 47 47 46 45 46 49 53 58 62 65 67 68 68 67 65 64 62 62 62 64 65 65
55 53 50 44 38 33 29 27 26 27 29 31 34 37 39 40 42 43 45 46 47 48 50 50 50 50 51 52 53 55 56 57 57 56 56 55 54 53 54 54 54 53 52 49 48 48 49 49 50 50 49 49 49 49 49 49 48 48 47 48 48 47 47 47 47 46 45 46 50 54 60 65 68 70 70 70 69 68 67 68 68 68 67 66 65 64
47 42 35 30 27 25 25 26 27 29 32 35 39 41 43 45 46 47 48 49 50 51 52 52 53 53 53 55 57 58 59 60 60 59 59 59 58 57 57 57 57 55 53 51 50 51 52 52 52 51 51 50 50 49 49 48 47 47 47 47 47 46 46 47 46 46 47 50 54 59 65 69 72 72 72 71 70 70 70 71 73 74 74 71 67 63
34 29 25 24 24 26 29 30 32 34 37 40 43 46 48 49 50 51 52 53 53 54 54 55 56 57 58 59 60 62 63 63 63 63 64 63 61 59 59 59 58 56 54 53 53 54 55 54 54 53 52 50 50 49 48 48 47 47 47 48 47 47 47 47 47 47 49 53 59 64 69 72 74 74 74 73 72 71 72 74 75 75 75 73 70 66
27 25 26 28 30 32 34 35 37 39 42 45 48 50 52 53 53 54 55 55 56 57 58 59 60 61 62 63 64 65 66 66 67 67 67 65 63 61 60 60 59 57 55 55 56 57 57 56 55 54 52 50 49 49 48 48 48 48 48 47 47 47 47 47 48 50 53 58 63 68 72 74 75 75 75 74 73 73 73 75 75 76 75 74 71 68
29 31 33 35 36 38 40 42 44 46 48 51 52 53 54 55 56 57 58 59 59 60 61 62 63 64 65 66 66 67 67 67 68 68 68 67 65 64 63 62 60 58 57 57 58 58 58 57 56 54 52 50 49 49 48 48 49 49 48 47 46 47 48 49 51 54 58 63 68 71 74 75 76 76 75 75 74 73 74 73 73 73 74 73 71 69
34 36 37 40 42 44 46 48 50 52 53 54 55 55 56 57 58 59 61 61 62 62 63 64 64 65 65 66 67 67 68 68 69 69 70 69 69 67 65 63 61 60 58 59 59 59 59 58 56 54 52 50 49 49 49 49 49 49 47 46 46 47 49 51 54 58 63 67 71 73 74 75 75 75 75 75 74 73 73 72 72 71 72 71 70 68
37 39 40 43 45 47 47 49 51 53 54 55 56 57 58 58 59 60 61 61 61 62 64 64 65 65 66 66 67 68 68 69 70 70 71 71 71 70 67 65 63 61 60 59 59 59 59 58 56 54 52 50 49 49 49 50 49 48 45 45 47 49 52 55 58 63 67 70 72 73 74 74 75 75 75 74 73 72 72 72 71 71 71 70 69 68
38 40 42 44 46 47 49 50 52 54 56 57 58 59 60 60 60 59 58 58 59 61 64 64 65 65 66 67 68 68 69 70 70 71 72 72 72 70 68 66 64 63 61 60 60 59 59 59 57 55 52 50 50 49 50 50 48 45 43 45 48 52 55 59 63 67 70 72 72 73 73 74 74 74 72 72 71 71 71 71 71 70 69 68 67 66
38 40 42 44 47 49 51 52 54 56 58 59 61 61 62 62 61 60 58 58 60 62 64 64 64 65 66 67 68 69 70 71 71 72 72 73 72 71 69 67 65 64 62 61 60 60 60 60 59 57 54 51 50 50 50 48 45 43 43 46 50 55 59 63 67 71 72 72 71 72 73 73 73 72 71 71 70 71 71 71 71 70 69 67 66 64
38 39 41 43 46 49 52 54 56 57 59 60 61 61 61 61 60 59 58 59 61 63 64 64 64 65 66 67 68 69 70 71 71 72 73 73 72 71 69 68 66 65 64 63 63 62 62 62 61 58 55 52 51 51 50 47 44 42 43 48 53 58 63 68 71 72 72 71 71 71 72 72 72 72 71 71 71 71 71 71 70 70 69 67 65 64
37 38 39 42 45 48 51 54 55 57 58 59 59 59 59 59 58 57 57 59 61 64 65 65 66 67 68 69 70 71 71 71 71 72 73 73 72 70 69 69 68 67 66 66 66 66 66 65 61 58 54 53 52 52 50 46 42 42 45 50 56 62 67 71 73 73 72 70 70 70 71 71 72 72 72 72 72 71 71 71 70 70 69 68 67 66
35 36 38 40 42 45 48 51 53 55 56 57 57 57 57 57 57 57 58 59 62 64 67 68 69 70 70 71 72 73 73 73 72 73 73 73 71 70 69 70 69 68 67 67 68 68 67 66 63 58 54 54 54 53 50 45 42 43 47 53 59 65 70 73 73 72 70 69 70 70 70 71 72 72 73 73 72 72 71 71 71 70 70 69 68 68
36 37 38 40 42 44 46 48 50 53 54 55 55 56 57 57 58 59 60 61 63 66 69 70 72 72 73 74 74 75 75 75 74 74 74 73 72 71 70 70 70 69 68 68 68 68 67 66 63 59 56 55 54 53 49 44 43 45 49 56 62 68 73 74 73 71 69 69 69 69 70 70 71 71 72 73 73 73 72 72 71 71 70 70 69 69
39 40 41 42 43 44 45 47 49 51 53 55 56 58 59 60 61 62 63 63 65 67 70 71 73 73 74 75 76 76 76 76 76 76 76 75 74 72 71 70 70 70 69 70 69 68 66 64 62 61 59 56 54 51 47 44 44 46 51 58 65 71 74 74 72 70 70 70 70 69 69 69 69 70 71 72 73 73 73 72 72 71 71 71 70 70
42 42 43 43 44 45 46 47 50 52 55 58 60 61 62 63 63 63 64 65 66 67 69 69 71 72 74 75 76 77 77 76 76 76 76 75 74 73 72 71 71 71 72 71 70 67 65 63 62 62 61 57 52 48 45 45 45 48 53 61 67 72 74 73 71 70 70 70 70 69 68 68 68 69 70 71 72 72 72 71 71 71 71 71 71 71
42 42 42 43 45 47 49 51 54 57 60 62 63 64 64 64 63 64 64 65 65 65 65 66 68 70 72 74 75 76 76 76 76 76 76 76 75 74 73 73 72 72 73 72 69 67 65 63 63 62 61 56 50 45 43 45 47 51 56 63 69 73 73 71 70 70 71 71 70 70 69 69 69 69 70 70 71 71 71 70 70 70 69 69 70 70
41 41 42 45 48 51 54 57 60 62 64 65 65 64 63 63 62 62 62 62 61 62 62 64 66 68 69 70 72 74 74 75 75 76 77 77 76 75 74 74 73 73 73 71 68 66 65 64 63 62 59 53 47 43 42 45 48 53 58 66 71 74 73 71 70 69 70 71 71 70 70 70 70 69 69 69 69 70 69 69 69 69 68 68 68 68
40 41 43 48 53 56 59 62 64 65 65 65 64 63 62 60 60 59 59 59 60 61 62 64 65 66 67 68 70 71 72 73 74 76 77 77 76 75 74 73 72 71 70 68 66 65 64 64 63 60 55 48 44 42 43 46 49 54 60 69 73 75 73 71 70 69 70 70 70 70 70 70 70 69 69 68 68 67 67 67 67 67 67 67 67 67
40 43 48 54 58 61 63 64 65 65 64 63 62 61 59 58 58 58 59 60 61 62 64 65 65 66 66 68 69 70 71 72 73 74 76 75 74 73 72 71 69 68 65 64 63 63 63 62 60 57 50 44 41 41 43 47 51 56 62 70 74 75 73 71 70 69 69 70 70 70 69 70 69 69 68 67 66 65 64 64 64 65 65 66 66 66
44 48 54 59 61 63 65 65 65 64 63 61 60 59 58 58 59 60 61 62 62 63 63 64 64 65 66 67 68 69 70 70 71 72 74 73 72 71 70 69 66 64 62 61 61 61 61 60 57 52 46 42 42 43 45 48 52 57 63 71 74 75 74 72 70 70 70 70 71 71 70 70 69 68 68 67 66 64 63 62 62 63 64 65 66 66
51 55 59 61 63 64 65 64 63 62 61 60 59 59 59 59 60 60 60 60 60 60 61 61 62 63 64 65 67 68 69 69 70 71 71 70 69 68 67 65 63 61 60 59 59 59 59 57 54 49 44 43 43 44 47 50 53 58 64 71 74 75 73 72 71 71 70 71 72 73 72 71 70 69 68 67 65 64 62 61 62 62 63 65 66 66
57 59 61 62 64 64 64 64 63 62 61 60 60 60 59 58 57 56 55 54 54 54 55 56 57 59 61 63 64 65 66 67 67 67 67 66 65 64 63 62 61 60 58 58 58 58 58 55 52 48 45 44 44 46 48 51 54 59 66 71 73 73 72 72 71 71 71 73 74 74 73 72 71 70 69 68 66 64 62 61 62 63 63 64 65 66
59 60 62 63 64 64 64 64 63 62 62 61 60 59 57 56 54 52 51 49 49 48 49 50 51 53 56 59 61 62 63 63 63 63 63 62 62 61 61 60 59 58 57 57 58 58 57 54 51 48 46 45 46 47 49 52 55 60 67 71 73 73 72 71 71 70 71 73 74 74 73 71 70 69 68 67 65 64 63 63 63 64 64 65 65 66
60 61 62 63 64 64 64 64 63 63 62 60 59 57 55 53 51 50 48 47 46 45 45 46 48 50 54 57 59 61 62 62 62 62 62 62 61 61 60 59 58 57 57 58 59 58 55 52 50 48 47 46 47 48 50 53 57 62 68 71 73 73 72 71 70 69 70 71 72 72 71 69 67 65 64 64 64 63 63 63 64 64 64 65 65 66
60 61 62 63 64 64 64 64 64 62 61 59 57 55 53 52 50 48 46 45 44 43 43 44 46 49 53 56 58 60 62 62 62 62 63 62 62 61 60 59 59 59 59 60 60 58 54 52 49 48 47 47 48 50 52 54 58 62 68 71 73 73 72 71 70 69 69 70 69 69 67 66 64 62 61 61 61 61 62 62 63 64 64 64 65 66
59 60 61 62 63 64 64 64 63 61 59 57 55 53 52 51 50 48 45 43 41 40 41 42 44 47 51 54 56 59 61 61 62 63 64 64 63 62 61 61 61 61 62 62 60 57 53 50 48 47 47 48 50 51 52 55 59 63 68 71 72 72 71 70 70 69 69 68 67 66 64 63 62 61 60 59 59 60 60 61 62 63 64 65 65 66
59 59 60 61 62 62 62 62 61 59 57 55 54 53 53 52 50 47 44 42 40 40 40 42 44 47 49 52 55 57 59 60 62 63 64 64 64 63 62 63 63 64 64 62 59 55 51 49 48 49 50 51 51 52 52 56 60 64 68 70 71 71 71 70 69 69 68 67 65 63 62 61 61 60 60 59 59 60 59 60 61 63 65 65 66 67
57 58 59 60 61 61 62 61 60 58 55 54 54 54 53 52 49 46 43 41 40 40 41 43 45 48 51 54 57 59 61 63 65 66 66 65 64 63 62 63 64 64 64 60 56 53 50 49 50 52 53 53 53 52 53 56 60 64 68 70 71 71 70 69 68 68 66 65 64 63 62 62 62 61 60 60 60 59 59 59 61 63 65 66 67 68
56 56 58 59 60 61 62 61 59 57 55 55 55 55 54 52 49 46 43 41 41 41 43 45 47 50 53 57 60 62 63 66 68 68 68 67 66 64 63 62 62 62 60 57 53 51 50 51 52 53 54 53 52 53 54 57 61 65 68 69 70 70 70 68 67 65 64 63 63 63 63 63 63 62 61 61 60 59 59 59 61 63 65 66 68 69
55 56 57 59 61 62 63 61 60 58 57 57 57 56 54 51 48 45 43 43 43 44 45 47 49 52 56 59 62 63 64 67 68 69 68 68 67 66 64 62 60 58 56 53 51 51 51 51 52 52 53 52 53 53 56 58 61 64 67 69 70 70 69 67 65 63 62 62 62 63 64 64 63 62 61 60 60 60 60 60 61 63 66 67 69 71
55 56 57 59 61 62 63 62 61 59 57 57 56 55 52 49 47 45 44 44 45 46 48 49 52 55 58 61 62 63 64 66 68 68 68 68 68 68 66 62 59 56 53 52 51 52 52 53 52 52 52 52 53 55 57 60 62 64 67 68 69 69 68 66 63 62 61 61 63 64 64 63 62 60 60 60 61 62 62 62 63 64 67 69 71 72